Location: Ergnies
(50.0854°N, 2.0375°E)
Time: 17:32:31
(UTC+00:00)

Meteor 1-11 Rocket - Visible Passes

Search period start: 11 April 2026 00:00
Search period end: 21 April 2026 00:00
Orbit: 830 x 914 km, 81.2° (Epoch: 11 April)

Date Brightness Start Highest point End Pass type
(mag) Time Alt. Az. Time Alt. Az. Time Alt. Az.
11 Apr 6.1 02:20:10 10° N 02:24:53 24° ENE 02:29:32 10° ESE visible
11 Apr 3.8 04:02:56 10° NNW 04:08:55 71° W 04:14:45 10° S visible
11 Apr 6.9 19:07:03 10° W 19:10:31 16° NW 19:14:01 10° NNW visible
12 Apr 6.1 02:14:29 10° N 02:19:17 24° ENE 02:24:00 10° ESE visible
12 Apr 3.8 03:57:20 10° NNW 04:03:15 69° W 04:09:05 10° S visible
13 Apr 6.0 02:08:49 10° N 02:13:40 25° ENE 02:18:27 10° ESE visible
13 Apr 3.8 03:51:43 10° NNW 03:57:37 66° W 04:03:25 10° S visible
14 Apr 5.9 02:03:09 10° N 02:08:04 26° ENE 02:12:54 10° ESE visible
14 Apr 3.8 03:46:05 10° NNW 03:51:59 64° W 03:57:45 10° S visible
15 Apr 5.8 01:57:30 10° N 02:02:28 27° ENE 02:07:21 10° ESE visible
15 Apr 3.9 03:40:28 10° NNW 03:46:20 62° W 03:52:05 10° S visible
16 Apr 5.8 01:51:50 10° N 01:56:51 27° ENE 02:01:47 10° ESE visible
16 Apr 3.9 03:34:51 10° NNW 03:40:42 59° W 03:46:24 10° S visible
17 Apr 5.7 01:46:10 10° N 01:51:14 28° ENE 01:56:13 10° ESE visible
17 Apr 3.9 03:29:14 10° NNW 03:35:02 57° W 03:40:43 10° S visible
18 Apr 5.6 01:40:31 10° N 01:45:38 29° ENE 01:50:39 10° ESE visible
18 Apr 3.9 03:23:36 10° NNW 03:29:23 55° W 03:35:02 10° S visible
19 Apr 5.6 01:34:51 10° N 01:40:01 30° ENE 01:45:05 10° SE visible
19 Apr 4.0 03:18:00 10° NNW 03:23:44 53° W 03:29:21 10° S visible
20 Apr 5.5 01:29:11 10° N 01:34:24 31° ENE 01:39:31 10° SE visible
20 Apr 4.0 03:12:22 10° NNW 03:18:05 51° W 03:23:40 10° SSW visible
